Tacoma, WA

1:49 PM PST on December 05, 2016 (GMT -0800)
McChord Air Force Base

Weather History for KTCM - February, 2012

Change the Weather History Date:

Sunday, February 19, 2012

  Actual Average Record
Temperature  
Mean Temperature 39 °F -  
Max Temperature 44 °F 48 °F 63 °F (1977)
Min Temperature 31 °F 30 °F 17 °F (2006)
Degree Days  
Heating Degree Days 26    
Moisture  
Dew Point 34 °F    
Average Humidity 84    
Maximum Humidity 98    
Minimum Humidity 63    
Precipitation  
Precipitation 0.00 in - - ()
Sea Level Pressure  
Sea Level Pressure 30.07 in    
Wind  
Wind Speed 11 mph (SSW)    
Max Wind Speed 16 mph    
Max Gust Speed 22 mph    
Visibility 10 miles    
Events      
Averages and records for this station are not official NWS values.
T = Trace of Precipitation, MM = Missing Value Source: NWS Daily Summary

Daily Weather History Graph

Daily Weather History Graph

Search for Another Location

Airport or City:

Trip Planner

Search our weather history database for the weather conditions in past years. The results will help you decide how hot, cold, wet, or windy it might be!

Date:

Astronomy

Feb. 19, 2012 Rise Set
Actual Time 7:08 AM PST 5:39 PM PST
Civil Twilight 6:37 AM PST 6:10 PM PST
Nautical Twilight 6:01 AM PST 6:46 PM PST
Astronomical Twilight 5:26 AM PST 7:21 PM PST
Moon 5:39 AM PST (2/19) 3:42 PM PST (2/19)
Length of Visible Light 11h 33m
Length of Day
10h 31m
Waning Crescent, 5% of the Moon is Illuminated
Feb 19
Waning Crescent
Feb 21
New
Feb 29
First Quarter
Mar 8
Full
Mar 14
Last Quarter

Hourly Weather History & Observations

Time (PST) Temp. Windchill Dew Point Humidity Pressure Visibility Wind Dir Wind Speed Gust Speed Precip Events Conditions
12:08 AM 39.2 °F 30.5 °F 37.4 °F 93% 30.12 in 10.0 mi SSW 16.1 mph - N/A   Overcast
12:15 AM 39.2 °F 30.5 °F 37.4 °F 93% 30.12 in 10.0 mi SSW 16.1 mph - N/A   Overcast
12:55 AM 39.7 °F 31.9 °F 36.5 °F 88% 30.12 in 10.0 mi SSW 13.8 mph 21.9 mph N/A   Overcast
1:55 AM 38.3 °F 30.5 °F 35.4 °F 89% 30.13 in 10.0 mi SSW 12.7 mph - N/A   Partly Cloudy
2:55 AM 37.6 °F 28.8 °F 34.9 °F 90% 30.13 in 10.0 mi SSW 15.0 mph - N/A   Clear
3:30 AM 37.4 °F 29.8 °F 35.6 °F 93% 30.13 in 10.0 mi South 11.5 mph - N/A   Mostly Cloudy
3:55 AM 36.1 °F 28.2 °F 34.7 °F 94% 30.12 in 10.0 mi South 11.5 mph - N/A   Scattered Clouds
4:55 AM 36.1 °F 28.2 °F 34.3 °F 93% 30.12 in 10.0 mi South 11.5 mph - N/A   Clear
5:55 AM 35.2 °F 28.1 °F 33.4 °F 93% 30.12 in 10.0 mi South 9.2 mph - N/A   Scattered Clouds
6:55 AM 34.7 °F 28.1 °F 33.3 °F 94% 30.11 in 10.0 mi South 8.1 mph - N/A   Mostly Cloudy
7:55 AM 34.3 °F 27.7 °F 32.9 °F 94% 30.12 in 10.0 mi South 8.1 mph - N/A   Clear
8:52 AM 37.4 °F 32.1 °F 33.8 °F 87% 30.13 in 10.0 mi South 6.9 mph - N/A   Overcast
8:55 AM 37.4 °F 32.1 °F 34.2 °F 88% 30.12 in 10.0 mi South 6.9 mph - N/A   Overcast
9:05 AM 37.4 °F 32.1 °F 33.8 °F 87% 30.12 in 10.0 mi South 6.9 mph - N/A   Overcast
9:55 AM 39.4 °F 32.7 °F 34.7 °F 83% 30.12 in 10.0 mi South 10.4 mph - N/A   Overcast
10:55 AM 41.4 °F 35.7 °F 34.9 °F 78% 30.12 in 10.0 mi South 9.2 mph - N/A   Overcast
11:55 AM 43.0 °F 37.2 °F 34.9 °F 73% 30.10 in 10.0 mi SSW 10.4 mph - N/A   Overcast
12:08 PM 42.8 °F 37.5 °F 35.6 °F 76% 30.10 in 10.0 mi SSW 9.2 mph - N/A   Overcast
12:09 PM 42.8 °F 37.0 °F 35.6 °F 76% 30.10 in 10.0 mi SSW 10.4 mph - N/A   Overcast
12:26 PM 42.8 °F 36.6 °F 33.8 °F 70% 30.09 in 10.0 mi SSW 11.5 mph - N/A   Overcast
12:36 PM 42.8 °F 35.8 °F 33.8 °F 70% 30.09 in 10.0 mi SSW 13.8 mph - N/A   Overcast
12:55 PM 43.2 °F 37.9 °F 34.0 °F 70% 30.09 in 10.0 mi SSW 9.2 mph - N/A   Overcast
1:55 PM 43.9 °F 38.8 °F 33.8 °F 68% 30.06 in 10.0 mi SSW 9.2 mph - N/A   Overcast
2:55 PM 44.4 °F 40.5 °F 33.1 °F 64% 30.05 in 10.0 mi SSW 6.9 mph - N/A   Mostly Cloudy
3:55 PM 43.9 °F 39.3 °F 32.2 °F 63% 30.03 in 10.0 mi South 8.1 mph - N/A   Overcast
4:55 PM 42.3 °F 39.4 °F 32.4 °F 68% 30.00 in 10.0 mi SSE 4.6 mph - N/A   Mostly Cloudy
5:55 PM 40.3 °F - 32.2 °F 73% 29.99 in 10.0 mi Calm Calm - N/A   Overcast
6:55 PM 37.0 °F - 33.8 °F 88% 29.98 in 10.0 mi Calm Calm - N/A   Clear
7:55 PM 36.5 °F - 34.2 °F 91% 29.99 in 10.0 mi Calm Calm - N/A   Mostly Cloudy
8:55 PM 36.0 °F - 34.3 °F 94% 29.98 in 10.0 mi Calm Calm - N/A   Overcast
9:55 PM 36.7 °F - 34.0 °F 90% 29.96 in 10.0 mi Calm Calm - N/A   Scattered Clouds
10:55 PM 34.0 °F - 33.4 °F 98% 29.94 in 10.0 mi Calm Calm - N/A   Mostly Cloudy
11:55 PM 31.1 °F - 30.4 °F 97% 29.94 in 10.0 mi Calm Calm - N/A   Mostly Cloudy